This is the latest recevied weather packets stored in our database for station/object AA7F. If no packets are shown the sender has not sent any weather packets the latest 10 day(s).
| Time | Temp. | Humidity | Pressure | Rain* | Wind** | Luminosity | Snow |
|---|---|---|---|---|---|---|---|
| 1777289376 | 2.78° C | 89% | 1012.6 hPa | 0 mm | - | 0 W/m² | - |
| 1777289072 | 2.78° C | 89% | 1012.9 hPa | 0 mm | - | 0 W/m² | - |
| 1777288769 | 2.78° C | 89% | 1012.7 hPa | 0 mm | - | 0 W/m² | - |
| 1777288466 | 2.78° C | 89% | 1012.7 hPa | 0 mm | - | 0 W/m² | - |
| 1777288162 | 2.78° C | 89% | 1012.4 hPa | 0 mm | - | 0 W/m² | - |
| 1777287859 | 2.78° C | 89% | 1012.6 hPa | 0 mm | - | 0 W/m² | - |
| 1777286646 | 2.78° C | 89% | 1012.5 hPa | 0 mm | - | 0 W/m² | - |
| 1777286343 | 2.78° C | 90% | 1012.4 hPa | 0 mm | - | 0 W/m² | - |
| 1777286040 | 2.78° C | 89% | 1012.3 hPa | 0 mm | - | 0 W/m² | - |
| 1777285737 | 2.78° C | 89% | 1012.3 hPa | 0 mm | - | 0 W/m² | - |
| 1777285434 | 2.78° C | 88% | 1012.1 hPa | 0 mm | - | 0 W/m² | - |
| 1777285131 | 2.78° C | 88% | 1012.4 hPa | 0 mm | - | 0 W/m² | - |
| 1777284829 | 3.33° C | 87% | 1012.1 hPa | 0 mm | - | 0 W/m² | - |
| 1777284526 | 3.33° C | 87% | 1012.3 hPa | 0 mm | - | 0 W/m² | - |
| 1777284222 | 3.89° C | 86% | 1012.2 hPa | 0 mm | - | 0 W/m² | - |
| 1777282107 | 4.44° C | 83% | 1012.2 hPa | 0 mm | - | 0 W/m² | - |
| 1777281805 | 4.44° C | 83% | 1012 hPa | 0 mm | - | 0 W/m² | - |
| 1777281502 | 3.89° C | 83% | 1012.1 hPa | 0 mm | - | 0 W/m² | - |
| 1777281198 | 3.89° C | 84% | 1012.1 hPa | 0 mm | - | 0 W/m² | - |
| 1777280895 | 3.89° C | 84% | 1012 hPa | 0 mm | - | 0 W/m² | - |
| 1777280289 | 5° C | 81% | 1012.1 hPa | 0 mm | - | 0 W/m² | - |
| 1777279985 | 5° C | 81% | 1012 hPa | 0 mm | - | 0 W/m² | - |
| 1777279683 | 5° C | 81% | 1012.3 hPa | 0 mm | - | 0 W/m² | - |
| 1777279381 | 5° C | 81% | 1012.3 hPa | 0 mm | - | 0 W/m² | - |
| 1777279077 | 4.44° C | 82% | 1012 hPa | 0 mm | - | 0 W/m² | - |
* Rain latest hour (hover to see other rain measurements)
** Current wind speed in m/s (hover to see current wind gust speed)